When you browse on this site, cookies collect data to enhance your experience and personalize the content and advertising you see.
Visit our Privacy Policy to learn more. By continuing to use the site, you agree to this use of cookies and data.
  • In Hungary
  • List of Countries
  • For 7 days
  • Water Temperature
  • Weather Map
  • News
  • Weather Widgets
  • user-avatar
    Login

    Hourly Weather Wejherowo

    Today, 6 December, Friday

    Time Temperature Precipitation Wind Pressure Humidity
    00:00 -2°C° 0 mm 7 mps 748 mmHg 71%
    01:00 -2°C° 0 mm 7 mps 748 mmHg 72%
    02:00 -1°C° 0 mm 8 mps 747 mmHg 71%
    03:00 -1°C° 0 mm 8 mps 746 mmHg 70%
    04:00 -1°C° 0 mm 9 mps 746 mmHg 70%
    05:00 -1°C° 0 mm 9 mps 745 mmHg 65%
    06:00 -1°C° 0 mm 9 mps 745 mmHg 60%
    07:00 0°C° 0 mm 10 mps 745 mmHg 55%
    08:00 0°C° 0 mm 10 mps 744 mmHg 61%
    09:00 0°C° 0 mm 10 mps 744 mmHg 66%
    10:00 0°C° 0 mm 10 mps 744 mmHg 71%
    11:00 0°C° 0 mm 10 mps 744 mmHg 74%
    12:00 0°C° 0 mm 9 mps 744 mmHg 78%
    13:00 0°C° 0 mm 9 mps 744 mmHg 81%
    14:00 0°C° 0.2 mm 9 mps 743 mmHg 82%
    15:00 0°C° 0.2 mm 8 mps 743 mmHg 83%
    16:00 0°C° 0.2 mm 8 mps 743 mmHg 85%
    17:00 0°C° 0.1 mm 7 mps 743 mmHg 85%
    18:00 0°C° 0.1 mm 7 mps 743 mmHg 85%
    19:00 0°C° 0.1 mm 7 mps 743 mmHg 85%
    20:00 0°C° 0.1 mm 7 mps 743 mmHg 86%
    21:00 0°C° 0.1 mm 7 mps 742 mmHg 87%
    22:00 +2°C° 0.1 mm 7 mps 742 mmHg 87%
    23:00 +2°C° 0 mm 7 mps 742 mmHg 87%

    Tomorrow, 7 December, Saturday

    Time Temperature Precipitation Wind Pressure Humidity
    00:00 +2°C° 0 mm 7 mps 741 mmHg 88%
    01:00 +2°C° 0 mm 7 mps 741 mmHg 88%
    02:00 +2°C° 0.2 mm 7 mps 740 mmHg 88%
    03:00 +2°C° 0.2 mm 7 mps 739 mmHg 89%
    04:00 +2°C° 0.2 mm 7 mps 739 mmHg 89%
    05:00 +2°C° 0.5 mm 7 mps 739 mmHg 89%
    06:00 +3°C° 0.5 mm 7 mps 738 mmHg 90%
    07:00 +3°C° 0.5 mm 7 mps 738 mmHg 90%
    08:00 +3°C° 0.3 mm 7 mps 738 mmHg 90%
    09:00 +4°C° 0.3 mm 7 mps 738 mmHg 90%
    10:00 +4°C° 0.3 mm 7 mps 738 mmHg 90%
    11:00 +5°C° 0.3 mm 7 mps 738 mmHg 90%
    12:00 +5°C° 0.3 mm 7 mps 738 mmHg 90%
    13:00 +5°C° 0.3 mm 7 mps 738 mmHg 89%
    14:00 +5°C° 0.2 mm 7 mps 738 mmHg 86%
    15:00 +5°C° 0.2 mm 7 mps 739 mmHg 84%
    16:00 +4°C° 0.2 mm 7 mps 739 mmHg 81%
    17:00 +4°C° 0 mm 8 mps 739 mmHg 78%
    18:00 +4°C° 0 mm 8 mps 740 mmHg 75%
    19:00 +3°C° 0 mm 9 mps 740 mmHg 72%
    20:00 +2°C° 0 mm 9 mps 740 mmHg 71%
    21:00 +2°C° 0 mm 9 mps 741 mmHg 70%
    22:00 +2°C° 0 mm 9 mps 741 mmHg 69%
    23:00 +2°C° 0.1 mm 9 mps 741 mmHg 69%

    Day after tomorrow, 8 December, Sunday

    Time Temperature Precipitation Wind Pressure Humidity
    00:00 +1°C° 0.1 mm 8 mps 742 mmHg 70%
    01:00 +1°C° 0.1 mm 8 mps 742 mmHg 70%
    02:00 +2°C° 0 mm 7 mps 742 mmHg 73%
    03:00 +2°C° 0 mm 7 mps 742 mmHg 76%
    04:00 +2°C° 0 mm 6 mps 742 mmHg 79%
    05:00 +2°C° 0.1 mm 6 mps 742 mmHg 83%
    06:00 +2°C° 0.1 mm 5 mps 742 mmHg 87%
    07:00 +2°C° 0.1 mm 5 mps 742 mmHg 91%
    08:00 +3°C° 0.2 mm 5 mps 742 mmHg 91%
    09:00 +3°C° 0.2 mm 6 mps 742 mmHg 90%
    10:00 +3°C° 0.2 mm 6 mps 741 mmHg 90%
    11:00 +4°C° 0.1 mm 7 mps 741 mmHg 87%
    12:00 +4°C° 0.1 mm 7 mps 740 mmHg 83%
    13:00 +4°C° 0.1 mm 7 mps 739 mmHg 80%
    14:00 +4°C° 0 mm 8 mps 739 mmHg 79%
    15:00 +4°C° 0 mm 8 mps 738 mmHg 79%
    16:00 +4°C° 0 mm 8 mps 737 mmHg 78%
    17:00 +5°C° 0.2 mm 8 mps 736 mmHg 80%
    18:00 +5°C° 0.2 mm 9 mps 736 mmHg 82%
    19:00 +5°C° 0.2 mm 9 mps 735 mmHg 84%
    20:00 +5°C° 0.1 mm 9 mps 735 mmHg 84%
    21:00 +6°C° 0.1 mm 8 mps 734 mmHg 83%
    22:00 +6°C° 0.1 mm 8 mps 734 mmHg 83%
    23:00 +6°C° 0.3 mm 8 mps 734 mmHg 81%

    9 December, Monday

    Time Temperature Precipitation Wind Pressure Humidity
    00:00 +6°C° 0.3 mm 8 mps 734 mmHg 79%
    01:00 +5°C° 0.3 mm 7 mps 734 mmHg 78%
    02:00 +5°C° 0 mm 8 mps 734 mmHg 78%
    03:00 +4°C° 0 mm 8 mps 734 mmHg 79%
    04:00 +4°C° 0 mm 8 mps 734 mmHg 79%
    05:00 +4°C° 0 mm 8 mps 734 mmHg 78%
    06:00 +4°C° 0 mm 8 mps 734 mmHg 77%
    07:00 +4°C° 0 mm 8 mps 735 mmHg 76%
    08:00 +4°C° 0 mm 8 mps 735 mmHg 76%
    09:00 +4°C° 0 mm 8 mps 735 mmHg 75%
    10:00 +4°C° 0 mm 8 mps 735 mmHg 75%
    11:00 +4°C° 0 mm 7 mps 735 mmHg 73%
    12:00 +4°C° 0 mm 7 mps 735 mmHg 72%
    13:00 +4°C° 0 mm 7 mps 736 mmHg 70%
    14:00 +4°C° 0 mm 6 mps 735 mmHg 72%
    15:00 +4°C° 0 mm 6 mps 735 mmHg 74%
    16:00 +5°C° 0 mm 5 mps 735 mmHg 76%
    17:00 +3°C° 0.1 mm 5 mps 735 mmHg 78%
    18:00 +3°C° 0.1 mm 5 mps 735 mmHg 80%
    19:00 +3°C° 0.1 mm 5 mps 735 mmHg 82%
    20:00 +3°C° 0 mm 5 mps 735 mmHg 82%
    21:00 +3°C° 0 mm 5 mps 735 mmHg 83%
    22:00 +3°C° 0 mm 5 mps 735 mmHg 83%
    23:00 +2°C° 0 mm 5 mps 735 mmHg 85%

    10 December, Tuesday

    Time Temperature Precipitation Wind Pressure Humidity
    00:00 +3°C° 0 mm 4 mps 736 mmHg 87%
    01:00 +3°C° 0 mm 4 mps 736 mmHg 89%
    02:00 +3°C° 0 mm 4 mps 736 mmHg 90%
    03:00 +1°C° 0 mm 4 mps 736 mmHg 91%
    04:00 +2°C° 0 mm 3 mps 736 mmHg 92%
    05:00 +2°C° 0 mm 3 mps 737 mmHg 92%
    06:00 +1°C° 0 mm 4 mps 737 mmHg 92%
    07:00 +1°C° 0 mm 4 mps 738 mmHg 92%
    08:00 +1°C° 0.4 mm 5 mps 739 mmHg 93%
    09:00 0°C° 0.4 mm 7 mps 740 mmHg 94%
    10:00 0°C° 0.4 mm 8 mps 740 mmHg 95%
    11:00 -1°C° 0.5 mm 8 mps 741 mmHg 89%
    12:00 -1°C° 0.5 mm 8 mps 742 mmHg 84%
    13:00 -1°C° 0.5 mm 8 mps 743 mmHg 79%
    14:00 -1°C° 0 mm 8 mps 744 mmHg 73%
    15:00 -2°C° 0 mm 7 mps 745 mmHg 67%
    16:00 -2°C° 0 mm 6 mps 746 mmHg 62%
    17:00 -2°C° 0 mm 6 mps 747 mmHg 63%
    18:00 -1°C° 0 mm 5 mps 748 mmHg 64%
    19:00 -1°C° 0 mm 5 mps 748 mmHg 65%
    20:00 -2°C° 0 mm 5 mps 749 mmHg 65%
    21:00 -2°C° 0 mm 5 mps 749 mmHg 66%
    22:00 -2°C° 0 mm 4 mps 749 mmHg 67%
    23:00 -2°C° 0 mm 4 mps 749 mmHg 66%

    11 December, Wednesday

    Time Temperature Precipitation Wind Pressure Humidity
    00:00 -2°C° 0 mm 4 mps 748 mmHg 65%
    01:00 -2°C° 0 mm 4 mps 748 mmHg 64%
    02:00 -2°C° 0 mm 5 mps 748 mmHg 61%
    03:00 -2°C° 0 mm 5 mps 747 mmHg 58%
    04:00 -3°C° 0 mm 6 mps 747 mmHg 55%
    05:00 -3°C° 0 mm 7 mps 746 mmHg 56%
    06:00 -2°C° 0 mm 7 mps 745 mmHg 56%
    07:00 -2°C° 0 mm 8 mps 744 mmHg 56%
    08:00 -3°C° 0 mm 9 mps 743 mmHg 58%
    09:00 -3°C° 0 mm 9 mps 743 mmHg 59%
    10:00 -2°C° 0 mm 10 mps 742 mmHg 60%
    11:00 -3°C° 0.3 mm 10 mps 741 mmHg 69%
    12:00 -3°C° 0.3 mm 10 mps 740 mmHg 78%
    13:00 -3°C° 0.3 mm 9 mps 739 mmHg 88%
    14:00 -1°C° 0.3 mm 8 mps 739 mmHg 90%
    15:00 -1°C° 0.3 mm 7 mps 739 mmHg 92%
    16:00 +1°C° 0.3 mm 6 mps 739 mmHg 94%
    17:00 +1°C° 0.5 mm 6 mps 739 mmHg 94%
    18:00 +1°C° 0.5 mm 5 mps 739 mmHg 94%
    19:00 +1°C° 0.5 mm 5 mps 739 mmHg 95%
    20:00 +1°C° 0 mm 5 mps 739 mmHg 93%
    21:00 +1°C° 0 mm 6 mps 740 mmHg 92%
    22:00 +1°C° 0 mm 6 mps 740 mmHg 91%
    23:00 +1°C° 0 mm 6 mps 740 mmHg 91%
    Show more